Погода в Загарине

Россия / Ульяновская область     53°25′05″N   47°15′11″E
темп.,
°C
ветер,
м/с
пор.,
м/с
влажн.,
%
обл.,
%
осадки,
мм/ч
давл.,
гПа
погр.,
м
16 июня, ср
ср1601:00+17всв258854 0.0 100885
04:00+15в22878 0.0 100727
07:00+18вюв28825 0.0 1006263
10:00+22ю33695 0.0 1006526
13:00+26ююз455922 0.0 10061360
16:00+24юз457154 3.3 1007711
19:00+23з378352 2.8 1007328
22:00+19сз411935 2.8 1009300
17 июня, чт
чт1701:00+18сз4129522 0.0 1011487
04:00+16ссз5119676 0.0 1013476
07:00+16с512845 0.0 1014520
10:00+20с69540 0.0 10161055
13:00+21с67500 0.0 10171529
16:00+22ссз67530 0.0 10181537
19:00+19ссз69640 0.0 1020781
22:00+14ссз311760 0.0 1021298
18 июня, пт
пт1801:00+12ссз36850 0.0 1022121
04:00+11с310835 0.0 1024236
07:00+13ссв410701 0.0 1025548
10:00+17ссв58470 0.0 10261334
13:00+19ссв57442 0.0 10261590
16:00+20ссв57441 0.0 10261610
19:00+18ссв36581 0.0 1026647
22:00+13св117948 0.0 102710
19 июня, сб
сб1901:00+12сз117898 0.0 102810
04:00+11сз117950 0.0 102810
07:00+15зсз12710 0.0 1029127
10:00+20зсз22565 0.0 1028678
13:00+23зсз33488 0.0 10271238
16:00+24зсз34525 0.0 10261344
19:00+23зсз35675 0.0 1025417
22:00+18зсз22890 0.0 102617
20 июня, вс
вс2001:00+16зсз22932 0.0 102623
04:00+16зсз22945 0.0 102618
07:00+19сз24830 0.0 1026189
10:00+24сз33633 0.0 1026738
13:00+27сз33524 0.0 10251676
16:00+28зсз33505 0.0 10241835
19:00+26ссз24678 0.0 1024282
22:00+20ссз11815 0.0 102411